Regional Weather Roundup
Issued by NWS

Home | Current Version | Previous Version | Text Only | Print | Product List | Glossary On
Versions: 1 2 3 4 5 6 7 8 9 10 11 12 13 14 15 16 17 18 19 20 21 22 23 24 25 26 27 28 29 30 31 32 33 34 35 36 37 38 39 40 41 42 43 44 45 46 47 48 49 50
223
ASUS43 KTOP 251859
RWRKS

WEATHER ROUNDUP FOR KANSAS
NATIONAL WEATHER SERVICE GOODLAND KS
200 PM CDT MON JUL 25 2016

NOTE:  "FAIR" INDICATES FEW OR NO CLOUDS BELOW 12,000 FEET WITH NO
SIGNIFICANT WEATHER AND/OR OBSTRUCTIONS TO VISIBILITY.

KSZ001>006-013>018-027>032-041>047-252000-
NORTHWEST KANSAS

CITY           SKY/WX    TMP DP  RH WIND       PRES   REMARKS
GOODLAND       MOSUNNY   82  64  54 SE15      30.18S
HAYS           MOSUNNY   81  64  57 S7        30.12F
HILL CITY      MOSUNNY   84  67  56 SE6G17    30.13F
RUSSELL        MOSUNNY   81  69  67 NE9       30.11F
$$

KSZ061>065-074>080-084>089-252000-
SOUTHWEST KANSAS

CITY           SKY/WX    TMP DP  RH WIND       PRES   REMARKS
DODGE CITY     MOSUNNY   82  67  60 E9        30.13F
ELKHART          N/A     79  65  62 E9          N/A
GARDEN CITY    MOSUNNY   80  66  62 E14       30.15F
GREAT BEND     MOSUNNY   82  64  54 SE8       30.10S
LIBERAL        PTSUNNY   81  66  61 E9        30.17S
$$

KSZ066>073-081>083-090>101-252000-
SOUTHEAST KANSAS

CITY           SKY/WX    TMP DP  RH WIND       PRES   REMARKS
CHANUTE        CLOUDY    80  72  76 S10       30.01F
COFFEYVILLE    CLOUDY    83  71  67 E10       30.01F
HUTCHINSON     CLOUDY    76  67  73 CALM      30.09F
NEWTON         CLOUDY    77  71  82 NW8       30.09F
PARSONS          N/A    N/A N/A N/A MISG      30.03F
WICHITA INTL   CLOUDY    84  69  60 NW5       30.06F
WICHITA JABRA  CLOUDY    82  69  64 CALM      30.06F
WINFIELD       MOSUNNY   86  67  52 E12       30.04F
$$

KSZ007>012-019>026-033>040-048>060-102>105-252000-
NORTHEAST KANSAS

CITY           SKY/WX    TMP DP  RH WIND       PRES   REMARKS
CONCORDIA      MOSUNNY   79  68  69 NE3       30.11F
EMPORIA        CLOUDY    77  72  84 NW9       30.06R
LAWRENCE       CLOUDY    78  71  79 NE10      30.03F
MANHATTAN      CLOUDY    77  70  79 N6        30.07F
OLATHE IND     CLOUDY    79  71  76 NE8       30.04F
OLATHE EXE     CLOUDY    78  70  76 E12       30.03F
SALINA         CLOUDY    79  71  76 N8        30.09F
TOPEKA BILLARD CLOUDY    77  69  76 N7        30.03F
TOPEKA FORBES  CLOUDY    77  70  79 NE8       30.04S
$$




USA.gov is the U.S. government's official web portal to all federal, state and local government web resources and services.